Regional Weather Roundup
Issued by NWS Midland/Odessa, TX

Home | Current Version | Previous Version | Text Only | Print | Product List | Glossary On
Versions: 1 2 3 4 5 6 7 8 9 10 11 12 13 14 15 16 17 18 19 20 21 22 23 24 25 26 27 28 29 30 31 32 33 34 35 36 37 38 39 40 41 42 43 44 45 46 47 48 49 50
000
ASUS44 KMAF 230410
RWRMAF
MIDLAND AREA WEATHER ROUNDUP
NATIONAL WEATHER SERVICE MIDLAND TX
1100 PM CDT TUE AUG 22 2017

...IN SOUTHWEST TEXAS AND SOUTHEAST NEW MEXICO...

CITY           SKY/WX    TMP DP  RH WIND       PRES   REMARKS
ALPINE         CLOUDY    68  63  82 W6        30.27R
ANDREWS          N/A     69  64  85 E12       30.19R
ARTESIA        CLEAR     77  64  65 N12       30.17S
BIG SPRING     CLOUDY    70  65  83 NE10G17   30.19F
CARLSBAD       CLOUDY    79  69  71 N8        30.12R
DRYDEN           N/A     81  62  52 E5        30.03R
FORT STOCKTON  CLOUDY    82  65  56 S6        30.10R
GUAD PASS      CLOUDY    71  58  63 N15       30.30R
HOBBS          CLOUDY    70  66  88 E13       30.18R
MARFA          CLOUDY    67  63  87 N5        30.26R
MIDLAND AIRPK  CLOUDY    70  70 100 E12       30.18F
MIDLAND INTL   CLOUDY    71  68  90 E14       30.16F
ODESSA         CLOUDY    70  68  93 E21G32    30.16R
PECOS          CLOUDY    82  65  56 NW6       30.07R
PRESIDIO       FAIR      85  63  47 N8        30.09R
SEMINOLE       CLOUDY    68  62  81 E8        30.18S
SNYDER         TSTM      67  65  94 NE10      30.19F
WINK           MOCLDY    79  65  62 NE22      30.11R
$$
...OTHER STATIONS IN TEXAS...

CITY           SKY/WX    TMP DP  RH WIND       PRES   REMARKS
ABILENE        MOCLDY    74  70  87 N21G29    30.11R
AMARILLO       CLOUDY    68  63  84 W5        30.21R
AUSTIN         CLEAR     85  71  63 S9        29.99R
BROWNSVILLE    CLEAR     81  77  88 E5        29.98R
CORPUS CHRISTI PTCLDY    81  76  84 SE5       29.98R
DALLAS FTW     CLOUDY    88  69  53 SE6       29.98R
DEL RIO        CLEAR     89  62  40 E8        29.98R
EL PASO        MOCLDY    83  63  50 SE5       30.14R
HOUSTON INT    MOCLDY    84  73  69 SW5       29.99S
LUBBOCK        CLOUDY    69  65  86 CALM      30.17R
SAN ANGELO     PTCLDY    81  61  50 E3        30.04R
SAN ANTONIO    PTCLDY    84  68  58 SE10      30.02R
WACO           CLEAR     81  69  67 S6        29.98R
WICHITA FALLS  NOT AVBL
$$
...OTHER LOCATIONS IN NEW MEXICO...

CITY           SKY/WX    TMP DP  RH WIND       PRES   REMARKS
ALAMOGORDO     MOCLDY    79  59  50 CALM      30.17R
ALBUQUERQUE    CLOUDY    72  57  59 E23G36    30.27R
CANNON AFB     CLEAR     67  67 100 NE9       30.27R
CLOVIS         CLOUDY    66  65  96 N8        30.26R
HOLLOMAN AFB   CLOUDY    82  62  50 S9        30.16R
ROSWELL        CLEAR     74  62  66 NE10      30.20R
RUIDOSO        CLOUDY    63  59  88 SE9       30.43R
SANTA FE       CLEAR     64  55  72 NE5       30.36R
TRUTH OR CONSE PTCLDY    79  57  46 CALM      30.20R
TUCUMCARI      CLOUDY    70  67  90 N3        30.24R
$$




USA.gov is the U.S. government's official web portal to all federal, state and local government web resources and services.